Stations météo

réclame
Mon MeteoGroup
Ornskoldsvik Airport, Suède (2267): Température de l'air & dewpoint: 18.02.2018 13:00:00 - 24.02.2018 13:00:00 (CET)Ornskoldsvik Airport, Suède (2267): Vitesse du vent: 18.02.2018 13:00:00 - 24.02.2018 13:00:00 (CET)Ornskoldsvik Airport, Suède (2267): Direction du vent: 18.02.2018 13:00:00 - 24.02.2018 13:00:00 (CET)Ornskoldsvik Airport, Suède (2267): reduced air pressure: 18.02.2018 13:00:00 - 24.02.2018 13:00:00 (CET)Ornskoldsvik Airport, Suède (2267): visibility: 18.02.2018 13:00:00 - 24.02.2018 13:00:00 (CET)
Date & Time tt [°C] td [°C] ff [km/h] ff [knt] dd ppp [hPa] vv [km]
24.02.2018 13:00:00 -12,0 -15,0 11 6 E - 10
24.02.2018 12:00:00 -12,4 -14,7 8 4 E 1042,9 10
24.02.2018 11:00:00 -12,8 -14,5 8 4 E 1043,1 10
24.02.2018 10:00:00 -13,7 -15,1 8 4 E 1042,9 10
24.02.2018 09:00:00 -14,8 -16,3 4 2 - 1042,7 3,1
24.02.2018 08:00:00 -16,5 -18,0 4 2 N 1042,4 0,7
24.02.2018 07:00:00 -18,5 -19,6 4 2 N 1041,9 0,9
24.02.2018 06:00:00 -20,7 -22,8 4 2 N 1041,7 0,9
24.02.2018 05:00:00 -20,8 -22,7 4 2 N 1041,0 1,1
24.02.2018 04:00:00 -21,9 -24,0 5 3 NNE 1040,9 0,9
24.02.2018 03:00:00 -21,7 -23,7 4 2 - 1040,6 10
24.02.2018 02:00:00 -19,8 -21,7 5 3 NNW 1040,6 1,0
24.02.2018 01:00:00 -21,0 -23,0 4 2 NW 1040,2 1,1
24.02.2018 00:00:00 -20,0 -22,0 5 3 NNW 1039,7 0,6
23.02.2018 23:00:00 -19,3 -20,9 5 3 NW 1039,5 10
23.02.2018 22:00:00 -17,5 -18,7 5 3 N 1038,8 3,9
23.02.2018 21:00:00 -14,1 -15,2 5 3 - 1038,2 1,9
23.02.2018 20:00:00 -13,6 -14,9 5 3 ENE 1037,7 5
23.02.2018 19:00:00 -12,4 -14,1 5 3 - 1037,3 5
23.02.2018 18:00:00 -11,2 -12,7 5 3 E 1036,7 5
23.02.2018 17:00:00 -10,3 -12,0 5 3 - 1036,1 10
23.02.2018 16:00:00 -9,3 -12,1 8 4 NE 1034,8 10
23.02.2018 15:00:00 -9,3 -12,1 8 4 NNE 1034,8 4,7
23.02.2018 14:00:00 -9,5 -12,8 11 6 NE 1034,5 10
23.02.2018 13:00:00 -9,5 -12,5 11 6 NNE 1034,2 4,1
23.02.2018 12:00:00 -10,0 -12,0 11 6 NNE 1033,8 2,8
23.02.2018 11:00:00 -10,6 -12,1 9 5 NNE 1033,2 5
23.02.2018 10:00:00 -10,7 -11,7 8 4 N 1032,6 6
23.02.2018 09:00:00 -11,6 -12,6 8 4 NNW 1032,0 10
23.02.2018 08:00:00 -12,3 -13,5 9 5 NNW 1031,4 10
23.02.2018 07:00:00 -14,1 -15,2 5 3 - 1030,9 10
23.02.2018 06:00:00 -16,1 -17,6 5 3 N 1030,5 10
23.02.2018 05:00:00 -17,0 -18,5 5 3 N 1030,1 10
23.02.2018 04:00:00 -17,9 -19,5 8 4 N 1029,7 10
23.02.2018 03:00:00 -19,6 -21,3 5 3 NNW 1029,4 10
23.02.2018 02:00:00 -18,2 -19,8 5 3 N 1029,1 10
23.02.2018 01:00:00 -17,9 -19,5 8 4 NNW 1028,7 10
23.02.2018 00:00:00 -19,4 -20,7 5 3 N 1028,6 10
22.02.2018 23:00:00 -18,1 -19,7 8 4 NNW 1028,4 10
22.02.2018 22:00:00 -18,1 -19,3 8 4 NNW 1028,3 4,0
22.02.2018 21:00:00 -21,3 -22,9 5 3 NW 1028,3 10
22.02.2018 20:00:00 -20,6 -21,9 5 3 NNW 1028,1 10
22.02.2018 19:00:00 -19,8 -21,3 4 2 NW 1028,2 10
22.02.2018 18:00:00 -18,0 -19,5 4 2 N 1028,1 10
22.02.2018 17:00:00 -13,5 -14,4 4 2 ENE 1027,9 10
22.02.2018 16:00:00 -9,0 -11,4 2 1 SE 1027,7 10
22.02.2018 15:00:00 -8,0 -10,2 4 2 SE 1028,0 10
22.02.2018 14:00:00 -7,5 -10,0 4 2 SE 1028,2 10
22.02.2018 13:00:00 -8,5 -10,7 4 2 - 1028,6 10
22.02.2018 12:00:00 -9,2 -10,7 0 0 N 1028,8 10
22.02.2018 11:00:00 -11,1 -12,3 2 1 - 1029,0 10
22.02.2018 10:00:00 -12,5 -13,8 0 0 N 1029,2 10
22.02.2018 09:00:00 -16,3 -17,7 4 2 NNW 1029,4 10
22.02.2018 08:00:00 -16,5 -18,0 4 2 NW 1029,3 6
22.02.2018 07:00:00 -15,8 -17,2 5 3 NNW 1029,4 5
22.02.2018 06:00:00 -15,0 -16,3 4 2 N 1029,1 10
22.02.2018 05:00:00 -13,6 -14,8 4 2 N 1029,2 2,9
22.02.2018 04:00:00 -13,0 -14,0 5 3 N 1029,5 2,2
22.02.2018 03:00:00 -13,5 -14,7 4 2 NNW 1029,5 5
22.02.2018 02:00:00 -13,6 -14,8 5 3 NW 1029,7 4,3
22.02.2018 01:00:00 -15,4 -16,7 5 3 N 1029,9 3,5
22.02.2018 00:00:00 -17,4 -18,9 5 3 NNW 1030,1 10
21.02.2018 23:00:00 -21,9 -23,7 5 3 NNW 1029,9 10
21.02.2018 22:00:00 -21,3 -23,0 5 3 NNW 1030,0 10
21.02.2018 21:00:00 -21,8 -23,6 4 2 NNW 1029,9 10
21.02.2018 20:00:00 -21,5 -23,3 4 2 NNW 1029,7 10
21.02.2018 19:00:00 -20,8 -22,5 4 2 NNW 1029,4 10
21.02.2018 18:00:00 -19,1 -20,6 0 0 N 1029,2 10
21.02.2018 17:00:00 -15,1 -16,2 2 1 - 1028,6 10
21.02.2018 16:00:00 -11,3 -13,0 0 0 N 1028,7 10
21.02.2018 15:00:00 -10,2 -12,2 0 0 N 1028,9 10
21.02.2018 14:00:00 -10,5 -12,4 4 2 WSW 1029,1 10
21.02.2018 13:00:00 -11,1 -12,6 0 0 N 1029,3 10
21.02.2018 12:00:00 -11,9 -13,3 2 1 - 1029,5 10
21.02.2018 11:00:00 -14,2 -15,5 4 2 NNE 1029,5 3,7
21.02.2018 10:00:00 -16,4 -17,8 4 2 NNW 1029,4 10
21.02.2018 09:00:00 -20,7 -22,6 5 3 - 1029,6 10
21.02.2018 08:00:00 -23,4 -25,6 4 2 NW 1029,4 10
21.02.2018 07:00:00 -22,2 -24,2 5 3 NW 1029,1 10
21.02.2018 06:00:00 -22,0 -24,0 5 3 NW 1029,4 4,9
21.02.2018 05:00:00 -21,1 -22,8 5 3 NNW 1029,4 10
21.02.2018 04:00:00 -21,2 -23,0 5 3 NNW 1029,5 4,5
21.02.2018 03:00:00 -21,7 -23,7 4 2 NNW 1029,8 10
21.02.2018 02:00:00 -21,0 -23,0 5 3 NNW 1029,9 0,9
21.02.2018 01:00:00 -22,6 -24,6 5 3 NNW 1030,1 2,3
21.02.2018 00:00:00 -22,7 -24,8 5 3 NNW 1030,3 10
20.02.2018 23:00:00 -24,9 -27,2 5 3 N 1030,3 10
20.02.2018 22:00:00 -23,3 -25,5 5 3 NNW 1030,1 10
20.02.2018 21:00:00 -22,4 -24,2 5 3 NNW 1030,2 10
20.02.2018 20:00:00 -21,8 -23,8 5 3 NNW 1030,1 10
20.02.2018 19:00:00 -19,8 -21,5 5 3 N 1030,3 10
20.02.2018 18:00:00 -18,0 -19,1 4 2 NE 1030,1 10
20.02.2018 17:00:00 -14,4 -15,5 5 3 E 1029,9 10
20.02.2018 16:00:00 -10,5 -13,0 2 1 - 1029,9 10
20.02.2018 15:00:00 -9,5 -12,5 5 3 ENE 1030,1 10
20.02.2018 14:00:00 -9,5 -12,5 5 3 ENE 1030,1 10
20.02.2018 13:00:00 -10,3 -12,3 4 2 E 1030,6 10
20.02.2018 12:00:00 -10,3 -12,0 4 2 - 1030,8 10
20.02.2018 11:00:00 -10,8 -12,3 4 2 - 1030,9 10
20.02.2018 10:00:00 -16,0 -17,4 4 2 NNW 1031,1 10
20.02.2018 09:00:00 -19,5 -21,0 5 3 NNW 1031,3 10
20.02.2018 08:00:00 -21,7 -23,7 5 3 NW 1031,3 10
20.02.2018 07:00:00 -21,0 -22,7 4 2 N 1031,0 10
20.02.2018 06:00:00 -19,5 -20,8 5 3 N 1031,1 10
20.02.2018 05:00:00 -17,5 -18,9 4 2 N 1031,2 7
20.02.2018 04:00:00 -15,5 -16,6 5 3 NNW 1031,6 10
20.02.2018 03:00:00 -14,5 -15,9 4 2 N 1031,7 7
20.02.2018 02:00:00 -13,2 -14,2 4 2 - 1031,9 6
20.02.2018 01:00:00 -12,8 -13,7 5 3 N 1031,9 2,7
20.02.2018 00:00:00 -13,2 -14,2 4 2 NW 1032,3 1,9
19.02.2018 23:00:00 -13,7 -15,0 4 2 N 1032,3 1,5
19.02.2018 22:00:00 -15,2 -16,1 8 4 NNW 1032,1 10
19.02.2018 21:00:00 -17,0 -18,2 4 2 NW 1032,0 10
19.02.2018 20:00:00 -11,8 -12,4 5 3 NE 1031,8 6
19.02.2018 19:00:00 -13,5 -14,4 4 2 ENE 1031,9 10
19.02.2018 18:00:00 -14,2 -14,8 5 3 NE 1031,9 10
19.02.2018 17:00:00 -11,6 -12,4 4 2 ENE 1031,4 10
19.02.2018 16:00:00 -9,3 -11,5 8 4 ESE 1031,0 10
19.02.2018 15:00:00 -8,4 -11,2 8 4 ESE 1030,6 10
19.02.2018 14:00:00 -6,6 -9,5 5 3 - 1030,5 10
19.02.2018 13:00:00 -7,0 -8,9 5 3 - 1030,4 10
19.02.2018 12:00:00 -8,1 -9,4 8 4 ENE 1030,5 10
19.02.2018 11:00:00 -9,1 -9,8 5 3 NNE 1030,2 10
19.02.2018 10:00:00 -9,1 -9,8 4 2 - 1029,7 10
19.02.2018 09:00:00 -9,6 -10,1 5 3 - 1029,4 8
19.02.2018 08:00:00 -9,9 -10,5 0 0 N 1028,8 10
19.02.2018 07:00:00 -10,0 -10,6 4 2 ENE 1028,4 10
19.02.2018 06:00:00 -10,4 -10,9 2 1 N 1027,9 6
19.02.2018 05:00:00 -11,5 -12,3 4 2 N 1027,7 6
19.02.2018 04:00:00 -12,6 -13,4 4 2 N 1027,2 8
19.02.2018 03:00:00 -15,1 -16,2 8 4 NNW 1027,2 10
19.02.2018 02:00:00 -16,8 -18,0 8 4 N 1027,0 10
19.02.2018 01:00:00 -17,0 -18,1 8 4 NNW 1026,8 10
19.02.2018 00:00:00 -16,2 -17,3 5 3 NNW 1026,6 10
18.02.2018 23:00:00 -14,9 -15,6 5 3 N 1026,3 10
18.02.2018 22:00:00 -12,5 -12,8 5 3 NNW 1026,1 6
18.02.2018 21:00:00 -7,8 -8,7 5 3 E 1025,6 10
18.02.2018 20:00:00 -7,0 -7,8 5 3 ENE 1025,6 10
18.02.2018 19:00:00 -6,8 -7,7 5 3 ENE 1025,5 10
18.02.2018 18:00:00 -6,5 -7,3 2 1 - 1025,3 10
18.02.2018 17:00:00 -6,0 -7,1 5 3 E 1025,1 10
18.02.2018 16:00:00 -5,7 -6,5 9 5 E 1024,9 10
18.02.2018 15:00:00 -4,1 -5,6 5 3 E 1024,9 10
18.02.2018 14:00:00 -4,0 -6,1 5 3 E 1024,9 10
18.02.2018 13:00:00 -4,1 -5,9 5 3 ESE 1025,0 10

tt = Température de l'air
td = dewpoint
ff = Vitesse du vent
dd = Direction du vent
ppp = reduced air pressure
vv = visibility

stations d'obs. à proximité